Fort Wayne, IN

10:11 AM EDT on March 24, 2017 (GMT -0400)
Fort Wayne International

Weather History for KFWA - January, 2013

Change the Weather History Date:

Thursday, January 3, 2013

  Actual Average Record
Temperature  
Mean Temperature 19 °F 25 °F  
Max Temperature 29 °F 33 °F 61 °F (2004)
Min Temperature 8 °F 18 °F -10 °F (2014)
Degree Days  
Heating Degree Days 46 40  
Month to date heating degree days 143 119  
Since 1 July heating degree days 2345 2447  
Cooling Degree Days 0 0  
Month to date cooling degree days 0 0  
Year to date cooling degree days 0 0  
Moisture  
Dew Point 16 °F    
Average Humidity 74    
Maximum Humidity 85    
Minimum Humidity 62    
Precipitation  
Precipitation T in 0.08 in 2.22 in (1950)
Month to date precipitation T 0.25  
Year to date precipitation T 0.25  
Snow  
Snow T in 0.40 in 2.80 in (1996)
Month to date snowfall T 1.0  
Since 1 July snowfall 9.6 11.6  
Snow Depth 3.00 in    
Sea Level Pressure  
Sea Level Pressure 30.21 in    
Wind  
Wind Speed 12 mph (WSW)    
Max Wind Speed 20 mph    
Max Gust Speed 24 mph    
Visibility 9 miles    
Events Snow    
T = Trace of Precipitation, MM = Missing Value Source: NWS Daily Summary

Daily Weather History Graph

Daily Weather History Graph

Search for Another Location

Airport or City:

Trip Planner

Search our weather history database for the weather conditions in past years. The results will help you decide how hot, cold, wet, or windy it might be!

Date:

Astronomy

Jan. 03, 2013 Rise Set
Actual Time 8:05 AM EST 5:25 PM EST
Civil Twilight 7:34 AM EST 5:56 PM EST
Nautical Twilight 7:00 AM EST 6:30 PM EST
Astronomical Twilight 6:27 AM EST 7:03 PM EST
Moon No Moon Rise 11:13 AM EST (1/3)
Length of Visible Light 10h 21m
Length of Day
9h 19m
Waning Gibbous, 65% of the Moon is Illuminated
Jan 3
Waning Gibbous
Jan 4
Last Quarter
Jan 11
New
Jan 18
First Quarter
Jan 26
Full

Hourly Weather History & Observations

Time (EST) Temp. Windchill Dew Point Humidity Pressure Visibility Wind Dir Wind Speed Gust Speed Precip Events Conditions
12:54 AM 9.0 °F -0.9 °F 3.0 °F 77% 30.21 in 10.0 mi SSW 5.8 mph - N/A   Clear
1:54 AM 10.0 °F 1.8 °F 3.0 °F 73% 30.21 in 10.0 mi SSW 4.6 mph - N/A   Clear
2:54 AM 10.0 °F -0.9 °F 3.0 °F 73% 30.21 in 10.0 mi WSW 6.9 mph - N/A   Clear
3:54 AM 9.0 °F -4.2 °F 3.0 °F 77% 30.21 in 10.0 mi SW 9.2 mph - N/A   Partly Cloudy
4:54 AM 12.0 °F 0.5 °F 5.0 °F 73% 30.19 in 10.0 mi SW 8.1 mph - N/A   Mostly Cloudy
5:54 AM 15.1 °F 4.2 °F 7.0 °F 70% 30.20 in 10.0 mi SW 8.1 mph - N/A   Overcast
6:54 AM 17.6 °F 5.7 °F 8.6 °F 68% 30.15 in 10.0 mi SW 10.4 mph - N/A   Overcast
7:54 AM 19.0 °F 5.0 °F 8.1 °F 62% 30.19 in 10.0 mi SW 15.0 mph - N/A   Overcast
8:54 AM 18.0 °F 5.4 °F 9.0 °F 68% 30.20 in 10.0 mi SW 11.5 mph - N/A   Scattered Clouds
9:31 AM 19.4 °F 7.2 °F 12.2 °F 74% 30.15 in 10.0 mi WSW 11.5 mph - N/A   Mostly Cloudy
9:54 AM 19.9 °F 7.3 °F 12.9 °F 74% 30.21 in 10.0 mi WSW 12.7 mph - N/A   Mostly Cloudy
10:54 AM 23.0 °F 11.1 °F 16.0 °F 74% 30.23 in 10.0 mi WSW 12.7 mph - N/A   Overcast
11:05 AM 23.0 °F 11.1 °F 17.6 °F 80% 30.18 in 10.0 mi WSW 12.7 mph - N/A   Overcast
11:54 AM 25.0 °F 13.1 °F 19.9 °F 81% 30.21 in 9.0 mi WSW 13.8 mph - N/A   Overcast
12:54 PM 26.1 °F 13.6 °F 21.0 °F 81% 30.20 in 8.0 mi WSW 16.1 mph - N/A   Overcast
1:10 PM 26.6 °F 14.3 °F 21.2 °F 80% 30.15 in 8.0 mi WSW 16.1 mph - N/A   Overcast
1:49 PM 26.6 °F 13.8 °F 21.2 °F 80% 30.15 in 8.0 mi WSW 17.3 mph - N/A   Overcast
1:54 PM 27.0 °F 13.9 °F 21.9 °F 81% 30.19 in 8.0 mi West 18.4 mph - N/A   Overcast
2:54 PM 28.0 °F 16.5 °F 21.9 °F 78% 30.20 in 8.0 mi WSW 15.0 mph - N/A   Overcast
3:38 PM 28.4 °F 16.2 °F 23.0 °F 80% 30.17 in 8.0 mi WSW 17.3 mph - N/A   Overcast
3:54 PM 28.0 °F 15.7 °F 23.0 °F 81% 30.22 in 9.0 mi WSW 17.3 mph - 0.00 in Snow Light Snow
4:05 PM 28.4 °F 17.5 °F 23.0 °F 80% 30.18 in 6.0 mi WSW 13.8 mph - 0.00 in Snow Light Snow
4:54 PM 28.0 °F 18.1 °F 23.0 °F 81% 30.24 in 8.0 mi West 11.5 mph - 0.00 in Snow Light Snow
5:02 PM 28.4 °F 18.0 °F 23.0 °F 80% 30.20 in 6.0 mi West 12.7 mph - 0.00 in Snow Light Snow
5:54 PM 28.9 °F 18.6 °F 24.1 °F 82% 30.25 in 7.0 mi WSW 12.7 mph - 0.00 in Snow Light Snow
6:12 PM 28.4 °F 18.5 °F 24.8 °F 86% 30.21 in 8.0 mi West 11.5 mph - 0.00 in   Overcast
6:54 PM 28.9 °F 19.2 °F 24.1 °F 82% 30.25 in 10.0 mi West 11.5 mph - 0.00 in   Overcast
7:54 PM 28.0 °F 17.5 °F 21.9 °F 78% 30.27 in 10.0 mi West 12.7 mph - N/A   Overcast
8:13 PM 28.4 °F 19.1 °F 21.2 °F 74% 30.23 in 10.0 mi West 10.4 mph - N/A   Overcast
8:54 PM 28.0 °F 19.3 °F 21.9 °F 78% 30.28 in 10.0 mi West 9.2 mph - N/A   Overcast
9:54 PM 28.0 °F 18.6 °F 21.9 °F 78% 30.28 in 10.0 mi West 10.4 mph - N/A   Overcast
10:29 PM 28.4 °F 18.0 °F 21.2 °F 74% 30.24 in 10.0 mi West 12.7 mph - N/A   Overcast
10:54 PM 28.0 °F 17.0 °F 21.0 °F 75% 30.27 in 10.0 mi WSW 13.8 mph - N/A   Overcast
11:54 PM 26.1 °F 15.0 °F 19.0 °F 75% 30.28 in 10.0 mi WSW 12.7 mph - N/A   Overcast